When you browse on this site, cookies collect data to enhance your experience and personalize the content and advertising you see.
Visit our Privacy Policy to learn more. By continuing to use the site, you agree to this use of cookies and data.
  • In United Kingdom
  • List of Countries
  • For 7 days
  • Water Temperature
  • Satellite Maps
  • Weather Map
  • Weather Widgets
  • user-avatar
    Login

    Hourly Weather Les Ulis

    Today, 24 April, Wednesday

    Time Temperature Precipitation Wind Pressure Humidity
    00:00 +14°C° 0.2 mm 2 mps 733 mmHg 81%
    01:00 +13°C° 0.3 mm 3 mps 733 mmHg 83%
    02:00 +13°C° 0.3 mm 3 mps 733 mmHg 85%
    03:00 +12°C° 0.3 mm 4 mps 733 mmHg 87%
    04:00 +13°C° 0 mm 4 mps 733 mmHg 85%
    05:00 +13°C° 0 mm 5 mps 733 mmHg 82%
    06:00 +13°C° 0 mm 6 mps 734 mmHg 80%
    07:00 +13°C° 0 mm 6 mps 734 mmHg 78%
    08:00 +13°C° 0 mm 5 mps 734 mmHg 76%
    09:00 +14°C° 0 mm 5 mps 734 mmHg 73%
    10:00 +14°C° 0.1 mm 5 mps 735 mmHg 71%
    11:00 +14°C° 0.1 mm 5 mps 735 mmHg 69%
    12:00 +14°C° 0.1 mm 5 mps 736 mmHg 66%
    13:00 +14°C° 0.2 mm 5 mps 736 mmHg 66%
    14:00 +14°C° 0.2 mm 6 mps 736 mmHg 66%
    15:00 +14°C° 0.2 mm 6 mps 736 mmHg 65%
    16:00 +14°C° 0.2 mm 6 mps 736 mmHg 66%
    17:00 +14°C° 0.2 mm 5 mps 736 mmHg 67%
    18:00 +13°C° 0.2 mm 5 mps 736 mmHg 67%
    19:00 +12°C° 0 mm 4 mps 736 mmHg 68%
    20:00 +12°C° 0 mm 3 mps 737 mmHg 69%
    21:00 +11°C° 0 mm 3 mps 737 mmHg 69%
    22:00 +11°C° 0 mm 3 mps 737 mmHg 69%
    23:00 +11°C° 0 mm 4 mps 737 mmHg 69%

    Tomorrow, 25 April, Thursday

    Time Temperature Precipitation Wind Pressure Humidity
    00:00 +12°C° 0 mm 4 mps 737 mmHg 70%
    01:00 +10°C° 0.4 mm 5 mps 737 mmHg 72%
    02:00 +10°C° 0.4 mm 6 mps 736 mmHg 75%
    03:00 +10°C° 0.4 mm 7 mps 736 mmHg 78%
    04:00 +10°C° 0.8 mm 6 mps 736 mmHg 80%
    05:00 +10°C° 0.8 mm 6 mps 737 mmHg 82%
    06:00 +9°C° 0.8 mm 6 mps 737 mmHg 85%
    07:00 +10°C° 0 mm 6 mps 738 mmHg 82%
    08:00 +10°C° 0 mm 5 mps 739 mmHg 79%
    09:00 +10°C° 0 mm 5 mps 739 mmHg 77%
    10:00 +10°C° 0.3 mm 5 mps 740 mmHg 75%
    11:00 +12°C° 0.3 mm 5 mps 740 mmHg 73%
    12:00 +11°C° 0.3 mm 6 mps 741 mmHg 71%
    13:00 +11°C° 0.1 mm 6 mps 741 mmHg 68%
    14:00 +12°C° 0.1 mm 5 mps 741 mmHg 66%
    15:00 +13°C° 0.1 mm 5 mps 741 mmHg 63%
    16:00 +12°C° 0.1 mm 5 mps 742 mmHg 64%
    17:00 +12°C° 0.1 mm 5 mps 742 mmHg 65%
    18:00 +10°C° 0.1 mm 5 mps 743 mmHg 66%
    19:00 +10°C° 0 mm 5 mps 743 mmHg 69%
    20:00 +9°C° 0 mm 5 mps 744 mmHg 71%
    21:00 +8°C° 0 mm 5 mps 744 mmHg 74%
    22:00 +7°C° 0 mm 4 mps 744 mmHg 77%
    23:00 +7°C° 0 mm 4 mps 745 mmHg 79%

    Day after tomorrow, 26 April, Friday

    Time Temperature Precipitation Wind Pressure Humidity
    00:00 +6°C° 0 mm 4 mps 745 mmHg 82%
    01:00 +6°C° 0 mm 4 mps 745 mmHg 83%
    02:00 +6°C° 0 mm 4 mps 745 mmHg 84%
    03:00 +5°C° 0 mm 5 mps 745 mmHg 85%
    04:00 +6°C° 0 mm 5 mps 746 mmHg 81%
    05:00 +7°C° 0 mm 5 mps 746 mmHg 76%
    06:00 +8°C° 0 mm 5 mps 746 mmHg 72%
    07:00 +9°C° 0 mm 5 mps 746 mmHg 69%
    08:00 +10°C° 0 mm 6 mps 747 mmHg 66%
    09:00 +13°C° 0 mm 6 mps 747 mmHg 62%
    10:00 +14°C° 0.1 mm 6 mps 747 mmHg 60%
    11:00 +15°C° 0.1 mm 6 mps 747 mmHg 57%
    12:00 +15°C° 0.1 mm 5 mps 747 mmHg 55%
    13:00 +15°C° 0.5 mm 6 mps 747 mmHg 57%
    14:00 +15°C° 0.5 mm 6 mps 747 mmHg 59%
    15:00 +15°C° 0.5 mm 6 mps 748 mmHg 61%
    16:00 +14°C° 0.2 mm 5 mps 748 mmHg 64%
    17:00 +13°C° 0.2 mm 5 mps 748 mmHg 68%
    18:00 +12°C° 0.2 mm 4 mps 749 mmHg 71%
    19:00 +11°C° 0.1 mm 4 mps 749 mmHg 74%
    20:00 +10°C° 0.1 mm 4 mps 750 mmHg 77%
    21:00 +8°C° 0.1 mm 5 mps 750 mmHg 80%
    22:00 +8°C° 0 mm 5 mps 750 mmHg 80%
    23:00 +7°C° 0 mm 5 mps 750 mmHg 79%

    27 April, Saturday

    Time Temperature Precipitation Wind Pressure Humidity
    00:00 +7°C° 0 mm 5 mps 749 mmHg 79%
    01:00 +7°C° 0.1 mm 6 mps 749 mmHg 80%
    02:00 +6°C° 0.1 mm 7 mps 748 mmHg 81%
    03:00 +7°C° 0.1 mm 8 mps 747 mmHg 82%
    04:00 +6°C° 0.3 mm 8 mps 747 mmHg 80%
    05:00 +6°C° 0.3 mm 8 mps 747 mmHg 78%
    06:00 +6°C° 0.3 mm 8 mps 746 mmHg 77%
    07:00 +6°C° 0.3 mm 9 mps 746 mmHg 76%
    08:00 +7°C° 0.3 mm 9 mps 747 mmHg 76%
    09:00 +7°C° 0.3 mm 10 mps 747 mmHg 76%
    10:00 +7°C° 0.8 mm 9 mps 747 mmHg 77%
    11:00 +7°C° 0.8 mm 9 mps 747 mmHg 79%
    12:00 +7°C° 0.8 mm 9 mps 747 mmHg 80%
    13:00 +8°C° 0.4 mm 9 mps 748 mmHg 78%
    14:00 +8°C° 0.4 mm 9 mps 748 mmHg 76%
    15:00 +8°C° 0.4 mm 9 mps 749 mmHg 74%
    16:00 +9°C° 0.1 mm 8 mps 749 mmHg 76%
    17:00 +9°C° 0.1 mm 8 mps 750 mmHg 77%
    18:00 +9°C° 0.1 mm 8 mps 751 mmHg 79%
    19:00 +9°C° 0.4 mm 8 mps 752 mmHg 80%
    20:00 +7°C° 0.4 mm 8 mps 752 mmHg 81%
    21:00 +8°C° 0.4 mm 7 mps 753 mmHg 83%
    22:00 +8°C° 0.1 mm 7 mps 753 mmHg 82%
    23:00 +8°C° 0.1 mm 6 mps 754 mmHg 82%

    28 April, Sunday

    Time Temperature Precipitation Wind Pressure Humidity
    00:00 +8°C° 0.1 mm 5 mps 754 mmHg 82%
    01:00 +7°C° 0 mm 5 mps 754 mmHg 83%
    02:00 +7°C° 0 mm 4 mps 755 mmHg 84%
    03:00 +6°C° 0 mm 4 mps 755 mmHg 85%
    04:00 +6°C° 0 mm 4 mps 755 mmHg 84%
    05:00 +6°C° 0 mm 4 mps 755 mmHg 83%
    06:00 +6°C° 0 mm 4 mps 756 mmHg 82%
    07:00 +8°C° 0 mm 4 mps 756 mmHg 76%
    08:00 +10°C° 0 mm 4 mps 756 mmHg 70%
    09:00 +12°C° 0 mm 4 mps 756 mmHg 64%
    10:00 +12°C° 0 mm 3 mps 756 mmHg 62%
    11:00 +13°C° 0 mm 3 mps 755 mmHg 59%
    12:00 +13°C° 0 mm 3 mps 755 mmHg 56%
    13:00 +14°C° 0 mm 3 mps 755 mmHg 56%
    14:00 +14°C° 0 mm 3 mps 755 mmHg 55%
    15:00 +14°C° 0 mm 3 mps 754 mmHg 54%
    16:00 +13°C° 0 mm 3 mps 754 mmHg 57%
    17:00 +13°C° 0 mm 3 mps 754 mmHg 59%
    18:00 +13°C° 0 mm 3 mps 754 mmHg 62%
    19:00 +11°C° 0 mm 3 mps 754 mmHg 65%
    20:00 +10°C° 0 mm 2 mps 755 mmHg 69%
    21:00 +9°C° 0 mm 2 mps 755 mmHg 72%
    22:00 +8°C° 0 mm 2 mps 755 mmHg 75%
    23:00 +8°C° 0 mm 2 mps 754 mmHg 77%

    29 April, Monday

    Time Temperature Precipitation Wind Pressure Humidity
    00:00 +7°C° 0 mm 2 mps 754 mmHg 80%
    01:00 +8°C° 0 mm 1 mps 754 mmHg 82%
    02:00 +7°C° 0 mm 1 mps 754 mmHg 83%
    03:00 +7°C° 0 mm 1 mps 753 mmHg 85%
    04:00 +7°C° 0 mm 1 mps 753 mmHg 84%
    05:00 +8°C° 0 mm 1 mps 753 mmHg 83%
    06:00 +8°C° 0 mm 1 mps 753 mmHg 82%
    07:00 +10°C° 0 mm 1 mps 753 mmHg 75%
    08:00 +12°C° 0 mm 1 mps 753 mmHg 68%
    09:00 +13°C° 0 mm 2 mps 753 mmHg 61%
    10:00 +15°C° 0 mm 1 mps 752 mmHg 55%
    11:00 +16°C° 0 mm 1 mps 752 mmHg 49%
    12:00 +18°C° 0 mm 1 mps 751 mmHg 42%
    13:00 +18°C° 0 mm 1 mps 751 mmHg 41%
    14:00 +18°C° 0 mm 2 mps 750 mmHg 40%
    15:00 +18°C° 0 mm 2 mps 750 mmHg 39%
    16:00 +17°C° 0 mm 2 mps 749 mmHg 44%
    17:00 +17°C° 0 mm 2 mps 749 mmHg 49%
    18:00 +16°C° 0 mm 2 mps 749 mmHg 55%
    19:00 +15°C° 0 mm 2 mps 749 mmHg 60%
    20:00 +14°C° 0 mm 2 mps 749 mmHg 65%
    21:00 +12°C° 0 mm 2 mps 749 mmHg 70%
    22:00 +12°C° 0 mm 2 mps 749 mmHg 72%
    23:00 +10°C° 0 mm 2 mps 748 mmHg 74%
    Show more